Location: Clanezzo
(45.7500°N, 9.6000°E)
Time: 17:35:49
(UTC+00:00)

EO-79 - Pass Details

Date: 30 June 2022
Orbit: 588 x 603 km, 98.0° (Epoch: 18 August)

Event Time Altitude Azimuth Distance (km) Brightness Sun altitude
Rises 00:46:33 0° 18° (NNE) 2,855 ? -18.6°
Reaches altitude 10° 00:48:47 10° 23° (NNE) 1,950 ? -18.5°
Maximum altitude 00:52:55 50° 100° (E) 768 ? -18.2°
Enters shadow 00:54:41 30° 159° (SSE) 1,087 ? -18.1°
